Terminal Aerodrome Forecast
Issued by NWS Salt Lake City, UT

Home | Current Version | Previous Version | Text Only | Print | Product List | Glossary On
Versions: 1 2 3 4 5 6 7 8 9 10 11 12 13 14 15 16 17 18 19 20 21 22 23 24 25 26 27 28 29 30 31 32 33 34 35 36 37 38 39 40 41 42 43 44 45 46 47 48 49 50
000
FTUS45 KSLC 210525
TAFSLC
TAF
KSLC 210525Z 2106/2212 15008KT P6SM SCT100
     FM211100 17006KT P6SM BKN100
     FM211700 18006KT P6SM OVC080
      TEMPO 2117/2121 -SHRA OVC060
     FM212200 18006KT P6SM VCSH BKN080=

USA.gov is the U.S. government's official web portal to all federal, state and local government web resources and services.